Change the Weather History Date:

Wednesday, July 11, 2012

  Actual Average Record
Temperature  
Mean Temperature 77 °F 80 °F  
Max Temperature 85 °F 91 °F 100 °F (1936)
Min Temperature 69 °F 69 °F 54 °F (1891)
Degree Days  
Heating Degree Days 0 0  
Month to date heating degree days 0 0  
Since 1 June heating degree days 0 2  
Since 1 July heating degree days 0 0  
Cooling Degree Days 12 15  
Month to date cooling degree days 199 163  
Year to date cooling degree days 870 715  
Since 1 June cooling degree days 522 514  
Growing Degree Days 26 (Base 50)    
Moisture  
Dew Point 69 °F    
Average Humidity 79    
Maximum Humidity 100    
Minimum Humidity 58    
Precipitation  
Precipitation 0.20 in 0.14 in 3.33 in (1896)
Month to date precipitation 1.78 1.57  
Year to date precipitation 18.02 24.80  
Snow  
Snow 0.00 in 0.00 in 0.00 in ()
Month to date snowfall T 0.0  
Since 1 June snowfall T 0.0  
Since 1 July snowfall T 0.0  
Snow Depth 0.00 in    
Sea Level Pressure  
Sea Level Pressure 30.06 in    
Wind  
Wind Speed 5 mph (ENE)    
Max Wind Speed 16 mph    
Max Gust Speed 24 mph    
Visibility 9 miles    
Events Rain    
T = Trace of Precipitation, MM = Missing Value Source: NWS Daily Summary

Daily Weather History Graph

Daily Weather History Graph

Search for Another Location

Airport or City:

Trip Planner

Search our weather history database for the weather conditions in past years. The results will help you decide how hot, cold, wet, or windy it might be!

Date:

Astronomy

Jul. 11, 2012 Rise Set
Actual Time 6:24 AM EDT 8:44 PM EDT
Civil Twilight 5:55 AM EDT 9:13 PM EDT
Nautical Twilight 5:19 AM EDT 9:49 PM EDT
Astronomical Twilight 4:40 AM EDT 10:27 PM EDT
Moon 12:50 AM EDT (7/11) 2:24 PM EDT (7/11)
Length of Visible Light 15h 18m
Length of Day
14h 19m
Last Quarter, 44% of the Moon is Illuminated
Jul 11
Last Quarter
Jul 19
New
Jul 26
First Quarter
Aug 1
Full
Aug 9
Last Quarter

Hourly Weather History & Observations

Time (EDT) Temp. Heat Index Dew Point Humidity Pressure Visibility Wind Dir Wind Speed Gust Speed Precip Events Conditions
12:01 AM 73.4 °F - 71.6 °F 94% 30.07 in 10.0 mi ENE 5.8 mph - N/A   Overcast
12:16 AM 73.4 °F - 71.6 °F 94% 30.06 in 10.0 mi East 6.9 mph - N/A   Overcast
12:30 AM 73.4 °F - 71.6 °F 94% 30.06 in 10.0 mi ENE 5.8 mph - N/A   Overcast
12:53 AM 72.0 °F - 71.1 °F 97% 30.02 in 9.0 mi SSE 5.8 mph - N/A   Overcast
1:53 AM 72.0 °F - 70.0 °F 93% 30.02 in 9.0 mi Calm Calm - N/A   Overcast
2:27 AM 71.6 °F - 69.8 °F 94% 30.06 in 10.0 mi SSW 3.5 mph - 0.00 in Rain Light Rain
2:50 AM 71.6 °F - 69.8 °F 94% 30.06 in 9.0 mi SSW 6.9 mph - 0.00 in Rain Light Rain
2:53 AM 72.0 °F - 69.1 °F 91% 30.03 in 6.0 mi SW 8.1 mph - 0.00 in Rain Light Rain
3:03 AM 71.6 °F - 69.8 °F 94% 30.06 in 3.0 mi SW 4.6 mph - 0.05 in Rain Rain
3:25 AM 71.6 °F - 69.8 °F 94% 30.06 in 5.0 mi Calm Calm - 0.12 in Rain Rain
3:33 AM 71.6 °F - 69.8 °F 94% 30.05 in 6.0 mi Calm Calm - 0.14 in Rain Light Rain
3:45 AM 71.6 °F - 69.8 °F 94% 30.05 in 10.0 mi North 3.5 mph - 0.14 in Rain Light Rain
3:53 AM 71.1 °F - 69.1 °F 93% 30.01 in 10.0 mi NNE 5.8 mph - 0.14 in Rain Light Rain
4:26 AM 71.6 °F - 69.8 °F 94% 30.03 in 10.0 mi North 5.8 mph - 0.00 in   Mostly Cloudy
4:38 AM 71.6 °F - 69.8 °F 94% 30.03 in 10.0 mi North 4.6 mph - 0.00 in   Mostly Cloudy
4:53 AM 71.1 °F - 69.1 °F 93% 29.99 in 10.0 mi NNE 3.5 mph - 0.00 in   Overcast
5:04 AM 71.6 °F - 69.8 °F 94% 30.02 in 10.0 mi Calm Calm - N/A   Overcast
5:53 AM 70.0 °F - 68.0 °F 93% 30.01 in 10.0 mi Calm Calm - N/A   Partly Cloudy
6:53 AM 70.0 °F - 68.0 °F 93% 30.03 in 10.0 mi Calm Calm - N/A   Clear
7:20 AM 69.8 °F - 69.8 °F 100% 30.07 in 10.0 mi Calm Calm - N/A   Mostly Cloudy
7:53 AM 71.6 °F - 68.0 °F 88% 30.08 in 10.0 mi East 3.5 mph - N/A   Mostly Cloudy
8:05 AM 71.6 °F - 69.8 °F 94% 30.08 in 10.0 mi East 4.6 mph - 0.00 in   Mostly Cloudy
8:53 AM 72.0 °F - 69.1 °F 91% 30.06 in 10.0 mi NE 3.5 mph - 0.01 in   Overcast
9:53 AM 73.0 °F - 70.0 °F 90% 30.08 in 10.0 mi NE 3.5 mph - N/A   Overcast
10:24 AM 73.4 °F - 69.8 °F 88% 30.11 in 10.0 mi Variable 3.5 mph - N/A   Overcast
10:48 AM 73.4 °F - 69.8 °F 88% 30.11 in 10.0 mi SE 4.6 mph - 0.00 in Rain Light Rain
10:53 AM 73.0 °F - 69.1 °F 87% 30.09 in 10.0 mi SE 4.6 mph - 0.00 in Rain Light Rain
11:26 AM 73.4 °F - 69.8 °F 88% 30.12 in 10.0 mi Calm Calm - 0.00 in   Overcast
11:53 AM 73.0 °F - 69.1 °F 87% 30.09 in 10.0 mi SSE 3.5 mph - 0.00 in   Overcast
12:53 PM 77.0 °F - 69.1 °F 76% 30.08 in 10.0 mi Calm Calm - N/A   Mostly Cloudy
1:11 PM 78.8 °F - 69.8 °F 74% 30.10 in 10.0 mi SSE 4.6 mph - N/A   Scattered Clouds
1:53 PM 79.0 °F - 68.0 °F 69% 30.06 in 10.0 mi Calm Calm - N/A   Mostly Cloudy
2:36 PM 80.6 °F 83.9 °F 69.8 °F 70% 30.08 in 10.0 mi SSE 6.9 mph - N/A   Mostly Cloudy
2:53 PM 81.0 °F 83.8 °F 68.0 °F 65% 30.04 in 10.0 mi SE 3.5 mph - N/A   Overcast
3:53 PM 82.0 °F 84.5 °F 66.9 °F 60% 30.02 in 10.0 mi Variable 3.5 mph - N/A   Overcast
4:00 PM 84.2 °F 88.4 °F 69.8 °F 62% 30.05 in 10.0 mi ESE 5.8 mph - N/A   Mostly Cloudy
4:53 PM 82.9 °F 85.4 °F 66.9 °F 58% 30.02 in 10.0 mi NNE 5.8 mph - N/A   Mostly Cloudy
5:53 PM 78.1 °F - 70.0 °F 76% 30.03 in 10.0 mi NNE 15.0 mph 24.2 mph N/A   Overcast
6:35 PM 73.4 °F - 68.0 °F 83% 30.07 in 10.0 mi North 11.5 mph 20.7 mph N/A   Overcast
6:53 PM 73.0 °F - 66.9 °F 81% 30.04 in 10.0 mi NNE 13.8 mph - N/A   Overcast
7:53 PM 71.1 °F - 66.9 °F 87% 30.05 in 10.0 mi NNE 9.2 mph - 0.00 in Rain Light Rain
8:40 PM 69.8 °F - 68.0 °F 94% 30.10 in 5.0 mi NNE 6.9 mph - 0.05 in Rain Rain
8:53 PM 70.0 °F - 66.9 °F 90% 30.08 in 9.0 mi NNE 6.9 mph - 0.05 in Rain Light Rain
9:53 PM 69.1 °F - 66.9 °F 93% 30.08 in 10.0 mi NNE 8.1 mph - 0.00 in   Partly Cloudy
10:53 PM 69.8 °F - 66.2 °F 88% 30.13 in 10.0 mi NNE 8.1 mph - N/A   Overcast
11:53 PM 70.0 °F - 68.0 °F 93% 30.11 in 10.0 mi NNE 8.1 mph - N/A   Overcast